, TX

(GMT )
Boomvang

Weather History for KVAF - January, 2014

Change the Weather History Date:

Wednesday, January 29, 2014

  Actual Average Record
Temperature  
Mean Temperature 47 °F -  
Max Temperature 50 °F - - ()
Min Temperature 44 °F - - ()
Degree Days  
Heating Degree Days 18    
Moisture  
Dew Point 35 °F    
Average Humidity 63    
Maximum Humidity 81    
Minimum Humidity 54    
Precipitation  
Precipitation 0.00 in - - ()
Sea Level Pressure  
Sea Level Pressure 30.31 in    
Wind  
Wind Speed 15 mph (NE)    
Max Wind Speed 28 mph    
Max Gust Speed 38 mph    
Visibility 9 miles    
Events      
T = Trace of Precipitation, MM = Missing Value Source: NWS Daily Summary

Daily Weather History Graph

Daily Weather History Graph

Search for Another Location

Airport or City:

Trip Planner

Search our weather history database for the weather conditions in past years. The results will help you decide how hot, cold, wet, or windy it might be!

Date:

Astronomy

Jan. 29, 2014 Rise Set
Actual Time 7:05 AM CST 5:57 PM CST
Civil Twilight 6:41 AM CST 6:22 PM CST
Nautical Twilight 6:13 AM CST 6:50 PM CST
Astronomical Twilight 5:45 AM CST 7:17 PM CST
Moon 5:42 AM CST (1/29) 4:57 PM CST (1/29)
Length of Visible Light 11h 40m
Length of Day
10h 51m
Waning Crescent, 2% of the Moon is Illuminated
Jan 29
Waning Crescent
Jan 30
New
Feb 6
First Quarter
Feb 14
Full
Feb 22
Last Quarter

Hourly Weather History & Observations

Time (CST) Temp. Windchill Dew Point Humidity Pressure Visibility Wind Dir Wind Speed Gust Speed Precip Events Conditions
12:15 AM 46.4 °F 41.1 °F 37.4 °F 71% 30.28 in 10.0 mi Variable 11.5 mph 38.0 mph N/A   Overcast
12:35 AM 46.4 °F 39.5 °F 37.4 °F 71% 30.28 in 10.0 mi North 17.3 mph 27.6 mph N/A   Overcast
12:55 AM 46.4 °F 39.2 °F 37.4 °F 71% 30.28 in 10.0 mi North 18.4 mph 34.5 mph N/A   Overcast
1:15 AM 46.4 °F 40.1 °F 37.4 °F 71% 30.28 in 10.0 mi Variable 15.0 mph 28.8 mph N/A   Overcast
1:35 AM 46.4 °F 41.5 °F 37.4 °F 71% 30.27 in 10.0 mi Variable 10.4 mph 26.5 mph N/A   Overcast
1:55 AM 46.4 °F 41.5 °F 39.2 °F 76% 30.27 in 8.0 mi NE 10.4 mph 31.1 mph N/A   Mostly Cloudy
2:15 AM 46.4 °F 40.7 °F 39.2 °F 76% 30.28 in 5.0 mi NNE 12.7 mph 27.6 mph N/A   Haze
2:35 AM 46.4 °F 41.9 °F 41.0 °F 81% 30.26 in 6.0 mi NE 9.2 mph 31.1 mph N/A   Haze
2:55 AM 46.4 °F 40.4 °F 39.2 °F 76% 30.27 in 9.0 mi Variable 13.8 mph 32.2 mph N/A   Mostly Cloudy
3:15 AM 46.4 °F 38.5 °F 39.2 °F 76% 30.28 in 2.5 mi North 21.9 mph 31.1 mph N/A   Haze
3:35 AM 46.4 °F 38.3 °F 39.2 °F 76% 30.27 in 9.0 mi North 23.0 mph 32.2 mph N/A   Overcast
3:55 AM 46.4 °F 40.4 °F 37.4 °F 71% 30.27 in 8.0 mi Variable 13.8 mph 38.0 mph N/A   Mostly Cloudy
4:15 AM 46.4 °F 39.5 °F 39.2 °F 76% 30.29 in 5.0 mi NNE 17.3 mph 31.1 mph N/A   Haze
4:35 AM 46.4 °F 41.1 °F 39.2 °F 76% 30.30 in 4.0 mi North 11.5 mph 26.5 mph N/A   Haze
4:55 AM 44.6 °F 36.9 °F 39.2 °F 81% 30.30 in 3.0 mi North 18.4 mph 29.9 mph N/A   Haze
5:15 AM 44.6 °F 38.4 °F 39.2 °F 81% 30.29 in 3.0 mi NE 12.7 mph 28.8 mph N/A   Haze
5:35 AM 44.6 °F - 39.2 °F 81% 30.28 in 5.0 mi North - - N/A   Haze
5:55 AM 44.6 °F 38.8 °F 37.4 °F 76% 30.30 in - NE 11.5 mph 31.1 mph N/A   Overcast
6:15 AM 46.4 °F 41.5 °F 37.4 °F 71% 30.31 in 10.0 mi NE 10.4 mph 34.5 mph N/A   Overcast
6:35 AM 44.6 °F 37.4 °F 37.4 °F 76% 30.33 in 7.0 mi ENE 16.1 mph 31.1 mph N/A   Mostly Cloudy
6:55 AM 44.6 °F 39.2 °F 35.6 °F 71% 30.33 in 8.0 mi ENE 10.4 mph 21.9 mph N/A   Mostly Cloudy
7:15 AM 44.6 °F 37.2 °F 35.6 °F 71% 30.35 in 6.0 mi ENE 17.3 mph 36.8 mph N/A   Haze
7:35 AM 44.6 °F 36.1 °F 35.6 °F 71% 30.36 in 3.0 mi ENE 21.9 mph 31.1 mph N/A   Haze
7:55 AM 44.6 °F 37.4 °F 35.6 °F 71% 30.36 in 4.0 mi ENE 16.1 mph 29.9 mph N/A   Haze
8:15 AM 44.6 °F 37.4 °F 35.6 °F 71% 30.36 in 7.0 mi ENE 16.1 mph 29.9 mph N/A   Mostly Cloudy
8:35 AM 44.6 °F 40.7 °F 35.6 °F 71% 30.38 in 7.0 mi Variable 6.9 mph 27.6 mph N/A   Mostly Cloudy
8:55 AM 46.4 °F 41.5 °F 35.6 °F 66% 30.37 in 8.0 mi NE 10.4 mph 28.8 mph N/A   Mostly Cloudy
9:15 AM 46.4 °F 38.7 °F 35.6 °F 66% 30.36 in 10.0 mi ENE 20.7 mph 34.5 mph N/A   Mostly Cloudy
9:35 AM 46.4 °F 37.9 °F 33.8 °F 62% 30.38 in 10.0 mi ENE 25.3 mph 31.1 mph N/A   Mostly Cloudy
9:55 AM 48.2 °F - 33.8 °F 58% 30.40 in 10.0 mi ENE 17.3 mph 28.8 mph N/A   Mostly Cloudy
10:15 AM 48.2 °F - 32.0 °F 54% 30.40 in 10.0 mi ENE 20.7 mph 29.9 mph N/A   Overcast
10:35 AM 48.2 °F - 32.0 °F 54% 30.39 in 10.0 mi ENE 19.6 mph 28.8 mph N/A   Overcast
10:55 AM 48.2 °F - 33.8 °F 58% 30.38 in 10.0 mi ENE 25.3 mph 34.5 mph N/A   Overcast
11:15 AM 50.0 °F - 33.8 °F 54% 30.37 in 10.0 mi ENE 24.2 mph 33.4 mph N/A   Overcast
11:35 AM 50.0 °F - 33.8 °F 54% 30.34 in 10.0 mi ENE 24.2 mph 36.8 mph N/A   Mostly Cloudy
11:55 AM 50.0 °F - 33.8 °F 54% 30.34 in 10.0 mi ENE 27.6 mph 34.5 mph N/A   Mostly Cloudy
12:15 PM 50.0 °F - 33.8 °F 54% 30.37 in 10.0 mi ENE 12.7 mph 29.9 mph N/A   Mostly Cloudy
12:35 PM 50.0 °F - 33.8 °F 54% 30.38 in 10.0 mi NNE 8.1 mph 17.3 mph N/A   Overcast
12:55 PM 50.0 °F - 33.8 °F 54% 30.32 in - ENE 13.8 mph 27.6 mph N/A   Overcast
1:15 PM 48.2 °F - 33.8 °F 58% 30.31 in 10.0 mi ENE 12.7 mph 27.6 mph N/A   Overcast
1:35 PM 48.2 °F - 33.8 °F 58% 30.29 in 10.0 mi ENE 19.6 mph 31.1 mph N/A   Mostly Cloudy
1:55 PM 50.0 °F - 33.8 °F 54% 30.29 in 10.0 mi ENE 10.4 mph 29.9 mph N/A   Mostly Cloudy
2:15 PM 48.2 °F - 33.8 °F 58% 30.28 in 10.0 mi ENE 27.6 mph - N/A   Overcast
2:35 PM 48.2 °F - 33.8 °F 58% 30.30 in 10.0 mi NE 9.2 mph 25.3 mph N/A   Overcast
2:55 PM 50.0 °F - 33.8 °F 54% 30.31 in 10.0 mi North 12.7 mph 25.3 mph N/A   Overcast
3:15 PM 50.0 °F - 35.6 °F 58% 30.31 in 10.0 mi Variable 6.9 mph 25.3 mph N/A   Overcast
3:35 PM 48.2 °F - 33.8 °F 58% 30.31 in 10.0 mi Variable 6.9 mph 21.9 mph N/A   Mostly Cloudy
3:55 PM 48.2 °F - 33.8 °F 58% 30.29 in 10.0 mi Variable 6.9 mph 28.8 mph N/A   Overcast
4:15 PM 48.2 °F - 33.8 °F 58% 30.29 in 10.0 mi NE 10.4 mph 24.2 mph N/A   Overcast
4:35 PM 48.2 °F - 35.6 °F 62% 30.29 in 10.0 mi ENE 23.0 mph 28.8 mph N/A   Overcast
4:55 PM 48.2 °F - 33.8 °F 58% 30.30 in 10.0 mi NE 8.1 mph 28.8 mph N/A   Overcast
5:15 PM 48.2 °F - 33.8 °F 58% 30.30 in 10.0 mi Variable 10.4 mph 23.0 mph N/A   Mostly Cloudy
5:35 PM 48.2 °F - 33.8 °F 58% 30.30 in 10.0 mi ENE 13.8 mph 25.3 mph N/A   Mostly Cloudy
5:55 PM 48.2 °F - 33.8 °F 58% 30.30 in 10.0 mi Variable 6.9 mph 21.9 mph N/A   Mostly Cloudy
6:15 PM 48.2 °F - 33.8 °F 58% 30.30 in 10.0 mi ENE 16.1 mph 26.5 mph N/A   Mostly Cloudy
6:35 PM 48.2 °F - 32.0 °F 54% 30.32 in 10.0 mi NE 8.1 mph 26.5 mph N/A   Mostly Cloudy
6:55 PM 48.2 °F - 35.6 °F 62% 30.32 in 10.0 mi ENE 21.9 mph - N/A   Overcast
7:15 PM 48.2 °F - 33.8 °F 58% 30.30 in 10.0 mi ENE 19.6 mph 25.3 mph N/A   Mostly Cloudy
7:35 PM 48.2 °F - 33.8 °F 58% 30.31 in 10.0 mi ENE 20.7 mph 28.8 mph N/A   Mostly Cloudy
7:55 PM 48.2 °F - 33.8 °F 58% 30.31 in 10.0 mi ENE 20.7 mph 26.5 mph N/A   Mostly Cloudy
8:10 PM 48.2 °F - 33.8 °F 58% 30.31 in 10.0 mi East 20.7 mph - N/A   Mostly Cloudy
8:35 PM 48.2 °F - 33.8 °F 58% 30.31 in 10.0 mi ENE 20.7 mph 27.6 mph N/A   Scattered Clouds
8:55 PM 50.0 °F - 33.8 °F 54% 30.31 in 10.0 mi ENE 17.3 mph 26.5 mph N/A   Scattered Clouds
9:15 PM 50.0 °F - 33.8 °F 54% 30.32 in 10.0 mi ENE 19.6 mph 26.5 mph N/A   Scattered Clouds
9:35 PM 50.0 °F - 33.8 °F 54% 30.32 in 10.0 mi ENE 13.8 mph 21.9 mph N/A   Scattered Clouds
9:55 PM 50.0 °F - 33.8 °F 54% 30.31 in 10.0 mi ENE 19.6 mph - N/A   Scattered Clouds
10:15 PM 50.0 °F - 33.8 °F 54% 30.31 in 10.0 mi ENE 16.1 mph 21.9 mph N/A   Mostly Cloudy
10:35 PM 50.0 °F - 33.8 °F 54% 30.31 in 10.0 mi ENE 17.3 mph - N/A   Mostly Cloudy
10:55 PM 50.0 °F - 33.8 °F 54% 30.31 in 10.0 mi East 16.1 mph - N/A   Scattered Clouds
11:15 PM 50.0 °F - 33.8 °F 54% 30.30 in 10.0 mi East 18.4 mph - N/A   Mostly Cloudy
11:35 PM 50.0 °F - 35.6 °F 58% 30.28 in 10.0 mi ENE 18.4 mph - N/A   Mostly Cloudy
11:55 PM 50.0 °F - 33.8 °F 54% 30.27 in 10.0 mi East 17.3 mph - N/A   Scattered Clouds